Wind_Speed
10 10 9 9 7 8 9 9 10 10 10 10 10 11 10 11 11 11 11 12 11 11 11 11 11 12 12 13 12 12 13 13 14 15 15 16 17 17 17 17 17 17 16 15 15 14 13 12 12
9 8 8 8 8 9 9 10 10 11 11 12 12 13 12 12 13 13 13 13 13 13 13 14 14 13 14 14 15 15 15 16 16 16 17 17 18 18 18 18 18 17 17 17 16 15 14 13 12
8 7 7 7 8 9 9 10 10 11 12 13 14 14 14 14 14 14 15 15 15 15 15 16 16 15 16 17 17 18 18 18 18 18 19 19 19 19 19 19 19 18 18 17 16 16 15 14 12
7 7 7 7 8 9 10 11 12 12 12 14 15 14 15 15 16 17 18 18 18 18 18 18 19 18 18 19 20 21 21 21 20 21 22 22 21 20 20 20 20 19 18 18 17 17 15 14 13
7 7 7 8 9 10 11 12 13 14 15 16 16 16 17 18 19 20 21 21 21 20 21 21 22 22 22 22 22 22 23 23 23 22 22 23 23 23 22 22 21 21 20 19 18 17 16 15 13
7 7 9 9 10 12 12 13 15 16 17 18 18 18 18 20 21 21 21 22 22 22 23 23 24 24 24 24 25 25 26 26 26 25 25 25 24 24 24 24 24 23 21 20 20 19 17 16 14
7 8 9 10 11 12 13 15 17 18 19 19 20 20 20 21 21 22 22 22 22 23 23 24 24 25 25 26 27 28 27 27 27 28 28 27 27 26 26 26 25 25 24 22 21 20 18 17 16
8 8 9 11 12 13 14 16 17 19 19 19 21 21 21 21 21 21 22 22 23 23 24 25 25 26 27 27 28 29 29 29 29 29 30 29 29 28 29 28 27 26 26 25 24 22 20 19 17
9 9 10 12 14 14 15 17 17 18 18 19 20 21 21 21 21 21 22 23 23 24 25 25 26 26 27 27 28 28 30 30 31 31 32 31 31 30 30 29 29 28 28 28 27 25 23 21 19
10 10 11 13 14 15 16 17 18 18 19 19 19 20 20 21 21 22 23 23 24 24 25 25 25 25 25 26 27 28 30 30 31 32 33 33 33 33 32 32 31 30 29 29 28 27 25 24 22
11 12 12 13 14 16 17 17 17 18 19 19 20 19 20 21 22 23 23 24 24 25 25 26 26 26 26 26 26 27 28 29 30 31 32 32 33 34 35 34 33 32 32 31 29 29 28 26 25
12 12 13 14 14 15 16 17 17 17 19 19 20 20 21 22 22 23 23 24 25 25 25 25 25 26 26 25 25 25 26 27 29 31 31 31 32 33 34 35 35 33 32 34 32 30 30 28 27
12 13 13 14 14 15 16 17 17 17 18 18 19 20 21 21 22 23 24 25 26 26 26 26 26 25 25 25 25 24 25 26 27 28 30 31 32 32 33 34 36 35 34 33 33 32 32 30 28
12 13 14 13 14 14 16 16 16 16 16 17 18 19 20 21 22 23 25 26 26 26 27 27 26 26 25 25 25 25 25 25 26 26 28 30 31 32 33 34 34 36 36 34 35 34 33 32 31
12 13 13 12 13 14 15 16 16 15 16 17 18 18 19 21 22 23 25 26 27 27 27 27 26 26 25 24 25 25 25 25 25 25 26 28 29 31 33 33 35 35 36 37 36 36 35 33 32
12 12 13 13 13 14 15 16 16 16 16 17 17 18 19 20 22 23 25 26 27 27 27 27 26 26 26 25 25 25 24 24 24 25 26 27 27 29 30 32 34 35 35 37 37 36 36 36 34
9 11 11 15 13 14 14 15 16 15 16 16 17 18 19 20 22 24 25 26 26 27 27 27 27 27 26 26 25 24 23 23 23 24 25 25 26 27 28 30 32 34 35 36 37 36 35 36 36
10 11 12 14 14 14 15 15 15 15 15 15 16 18 19 21 22 24 25 26 26 27 27 27 27 27 27 26 25 24 23 23 22 22 22 22 23 24 25 27 29 32 34 36 38 38 36 36 36
12 12 13 13 14 14 14 14 14 14 14 14 16 17 19 21 23 24 24 25 26 27 27 28 28 27 27 26 26 25 24 23 22 22 21 21 21 22 24 25 27 29 31 33 36 37 36 37 37
14 13 12 13 13 13 12 12 12 12 12 14 15 17 19 21 22 23 25 25 26 26 27 28 28 28 27 27 26 25 24 23 22 20 19 19 20 20 22 23 25 27 29 31 34 37 37 37 38
15 14 13 12 12 12 11 10 10 9 10 12 14 16 18 20 21 23 24 25 25 26 27 28 29 29 28 27 26 25 25 24 22 20 18 18 18 18 19 20 21 24 27 29 32 34 37 37 38
15 14 12 11 11 10 9 9 9 10 10 11 13 15 17 19 21 22 24 24 25 26 27 28 29 29 29 28 27 26 25 24 23 20 18 17 16 16 16 17 19 21 24 27 30 32 34 36 37
15 12 10 9 9 8 8 8 10 10 10 11 13 15 16 18 20 22 23 24 25 26 27 28 29 30 29 29 28 27 26 25 24 22 20 18 17 16 15 16 17 19 21 24 27 30 33 35 36
13 11 9 7 6 6 7 8 10 10 11 12 13 14 16 18 20 22 23 24 25 26 27 28 29 29 29 29 29 28 28 26 25 23 21 20 18 16 15 15 16 17 19 22 25 28 31 33 35
12 10 8 4 4 7 10 11 11 10 11 11 12 14 15 17 19 21 22 23 24 26 27 28 29 29 29 29 29 29 29 28 26 25 22 21 19 17 15 14 14 15 17 20 22 25 28 31 34
12 11 10 8 7 9 11 12 9 8 9 10 11 13 15 17 18 20 21 23 24 25 26 28 29 29 30 30 30 30 29 29 28 26 24 22 20 18 16 14 12 12 14 17 19 23 26 29 32
12 11 11 10 9 8 8 11 8 8 9 9 11 12 14 16 17 19 20 22 23 25 26 27 29 30 30 30 30 30 30 29 29 28 26 24 21 19 17 15 12 10 11 14 16 20 23 27 30
13 12 11 10 10 7 6 11 9 6 8 9 10 12 13 15 16 18 19 21 23 24 26 27 28 29 30 31 31 31 30 30 29 29 27 25 22 20 19 16 12 9 8 11 13 17 20 24 27
13 12 12 11 10 9 9 12 8 8 8 9 10 11 13 14 15 17 19 20 22 24 25 27 28 29 30 31 31 31 31 31 30 29 28 27 24 22 20 17 14 9 6 7 10 12 16 20 24
13 13 13 12 12 11 11 10 8 8 8 8 9 11 12 13 15 16 18 20 21 23 25 26 27 28 30 30 31 31 32 31 31 30 29 28 26 24 21 18 16 11 7 5 6 10 12 16 20
Wind_Direction
43 41 43 36 32 32 25 17 10 4 359 351 344 339 337 331 327 324 321 319 314 306 302 299 293 288 283 279 275 264 259 254 251 249 248 248 249 248 248 251 251 251 252 254 256 257 260 262 265
36 35 37 25 21 22 13 8 2 355 349 344 338 333 331 325 322 318 314 313 311 307 302 298 292 286 281 277 274 268 260 257 256 255 253 251 252 253 253 254 254 253 253 253 255 257 259 261 263
23 22 25 11 13 12 3 359 352 347 340 336 333 329 325 322 319 317 314 310 308 305 300 298 293 288 282 277 270 267 265 261 258 258 256 255 255 255 255 254 254 253 252 253 253 255 256 258 257
10 9 3 6 4 1 354 348 343 340 335 330 329 327 322 320 317 315 312 309 307 304 299 297 292 289 285 279 273 268 265 263 260 260 258 256 254 254 255 254 251 251 251 251 250 251 252 253 253
1 1 347 353 351 349 345 341 339 338 332 328 327 326 323 319 316 312 310 307 305 301 298 295 291 288 286 282 277 270 267 264 261 262 263 260 257 254 254 254 251 251 249 247 247 248 248 249 248
348 346 340 344 336 338 337 335 333 331 329 326 325 326 324 321 317 315 313 310 306 303 300 298 294 290 285 282 278 274 269 266 262 262 262 259 256 256 256 253 251 250 249 247 246 245 245 244 242
332 332 331 329 329 332 331 330 329 329 329 327 326 326 325 322 320 318 317 315 311 307 304 300 297 292 288 284 281 276 273 270 266 264 262 259 258 256 254 253 252 249 248 247 246 244 241 240 239
323 327 327 318 323 328 326 325 326 326 327 327 327 328 328 326 324 322 321 319 316 312 308 303 299 295 290 285 282 279 274 273 269 266 264 263 260 257 254 253 251 248 246 245 243 242 239 237 236
313 318 316 316 321 324 325 325 327 326 328 329 330 330 331 330 328 327 325 323 320 316 313 309 304 298 293 289 284 281 277 274 271 268 266 263 262 259 256 254 251 249 245 243 242 239 237 234 234
302 304 308 314 320 323 325 326 328 330 331 331 332 334 334 333 332 331 329 326 323 320 317 313 309 304 298 293 289 284 281 277 273 270 267 264 261 260 257 255 253 249 245 243 241 238 236 234 233
298 303 307 312 317 319 322 326 329 331 333 334 336 338 338 337 336 334 333 330 327 324 321 317 313 308 303 298 294 288 284 281 276 273 270 267 263 260 257 257 254 250 247 244 242 238 236 235 233
294 298 304 311 315 319 323 327 330 333 334 335 337 339 339 339 339 339 338 336 332 329 327 324 319 315 310 305 299 294 289 285 281 276 271 267 264 262 258 257 255 252 248 245 242 240 237 236 234
291 298 306 310 314 320 325 329 332 333 333 335 337 339 340 341 342 342 342 340 338 335 332 328 325 320 315 310 306 300 294 289 286 280 273 269 265 262 259 256 254 251 248 246 242 240 239 237 234
292 298 306 309 313 319 325 329 331 334 334 335 338 341 342 345 345 345 344 342 340 338 335 333 330 326 321 315 310 305 300 294 289 285 280 273 267 264 261 257 253 251 248 247 245 242 239 237 235
285 294 301 308 313 321 326 329 331 336 338 339 341 344 347 348 347 346 346 345 343 342 339 337 335 331 327 322 316 309 302 297 292 288 284 278 272 267 262 257 253 251 247 245 243 241 238 237 236
284 297 304 307 314 321 327 330 332 337 341 342 345 347 349 350 349 349 349 347 346 345 344 342 339 336 331 326 322 317 310 302 296 292 287 282 275 270 264 258 253 250 247 244 242 240 237 236 235
285 296 301 306 315 321 327 329 331 337 341 343 346 347 350 352 352 352 351 350 349 348 347 345 343 340 337 333 329 325 319 310 303 298 292 285 278 273 268 259 252 249 246 243 239 238 237 235 234
272 282 292 297 306 318 323 325 330 335 341 345 347 349 352 353 354 353 352 351 350 349 349 348 346 344 341 339 336 332 326 319 312 305 298 290 282 276 270 262 254 249 245 242 239 237 235 234 233
264 276 286 294 301 309 315 322 327 334 341 347 349 352 353 354 354 354 354 353 352 352 352 351 349 347 346 344 341 337 332 326 320 313 304 296 288 280 272 264 257 250 245 241 238 236 235 234 232
262 270 275 282 293 303 310 318 323 334 340 345 349 352 354 355 355 355 355 354 354 354 354 354 353 351 350 349 347 343 339 334 328 321 311 303 293 282 274 267 259 250 244 240 237 235 233 232 232
261 268 273 280 290 298 306 317 321 337 340 344 348 351 353 355 356 356 356 356 356 357 357 356 356 355 354 352 350 348 346 343 338 331 323 314 303 291 278 270 261 252 245 239 236 234 232 231 230
256 263 274 283 289 296 307 317 322 332 339 344 348 350 353 355 356 357 357 358 358 359 359 359 359 359 357 356 355 353 351 349 346 340 333 324 315 302 288 274 262 252 245 239 235 233 232 230 229
254 264 272 281 290 297 309 316 316 326 335 344 348 350 352 355 357 358 359 359 360 0 0 0 0 360 359 359 358 356 354 353 351 347 342 335 326 315 299 282 268 257 247 240 236 232 231 229 228
254 258 261 273 295 317 305 307 304 324 336 339 343 347 350 354 357 359 0 1 2 2 2 1 1 1 1 1 1 360 359 357 355 353 348 342 334 324 313 296 277 262 251 242 237 232 229 229 227
247 248 248 265 323 314 292 296 296 322 327 332 338 344 349 353 355 358 360 1 2 3 3 4 4 4 4 4 4 3 2 1 359 356 351 348 342 333 323 308 289 269 255 244 237 232 230 229 227
241 241 239 224 210 247 276 287 299 314 318 326 334 341 347 351 354 357 360 2 3 4 4 5 6 6 6 7 6 5 4 4 2 359 356 354 351 345 336 322 300 279 259 246 239 234 230 228 227
238 236 239 240 237 244 280 289 290 303 312 321 332 339 345 350 354 358 1 4 5 5 5 6 7 7 8 8 7 7 6 5 5 3 2 0 358 355 348 338 321 294 266 249 244 238 232 229 227
240 239 236 235 232 222 253 280 291 303 310 320 330 338 345 350 354 359 2 3 5 5 6 7 7 7 8 8 8 8 8 7 7 7 6 5 3 1 357 351 341 318 283 257 244 238 233 229 227
237 236 235 239 240 235 230 258 284 298 305 317 328 337 344 349 354 357 359 1 3 5 5 6 7 8 8 8 8 9 9 9 9 9 9 8 6 3 1 360 354 342 312 273 252 240 233 231 229
241 238 234 234 234 239 248 259 272 286 298 313 324 334 341 347 352 355 357 359 0 2 4 6 7 8 8 9 9 10 10 11 11 12 12 11 10 8 6 4 2 354 338 304 266 246 237 231 228
Height
5914 5913 5912 5912 5910 5909 5909 5908 5907 5906 5905 5904 5903 5902 5901 5900 5900 5901 5897 5895 5894 5893 5892 5891 5890 5889 5889 5888 5887 5887 5887 5886 5886 5886 5887 5887 5887 5888 5888 5889 5889 5890 5890 5890 5891 5891 5891 5891 5891
5915 5914 5914 5913 5910 5909 5909 5908 5907 5906 5905 5904 5902 5901 5901 5899 5898 5897 5895 5894 5893 5892 5891 5889 5888 5888 5887 5886 5885 5885 5884 5884 5884 5884 5884 5885 5885 5885 5886 5886 5887 5887 5888 5888 5889 5889 5889 5890 5890
5916 5915 5915 5913 5911 5910 5910 5908 5907 5906 5905 5903 5902 5901 5900 5898 5897 5895 5893 5892 5891 5890 5888 5887 5886 5885 5884 5883 5883 5882 5882 5881 5881 5881 5882 5882 5882 5882 5883 5883 5884 5884 5885 5886 5886 5887 5887 5888 5888
5917 5916 5915 5914 5911 5910 5909 5908 5907 5905 5903 5902 5901 5900 5898 5896 5895 5893 5891 5889 5888 5887 5886 5884 5883 5882 5881 5880 5879 5879 5878 5878 5878 5878 5878 5878 5879 5879 5880 5880 5881 5881 5882 5883 5884 5884 5885 5885 5886
5917 5916 5914 5911 5910 5910 5909 5907 5906 5904 5903 5901 5899 5898 5896 5894 5892 5890 5888 5886 5885 5884 5882 5881 5879 5878 5877 5876 5875 5875 5874 5874 5874 5874 5874 5874 5875 5875 5876 5877 5877 5878 5879 5880 5881 5882 5883 5883 5884
5918 5916 5914 5911 5911 5910 5908 5907 5905 5903 5901 5899 5897 5896 5894 5892 5889 5886 5884 5883 5881 5879 5878 5876 5875 5873 5872 5871 5870 5869 5869 5869 5869 5869 5869 5869 5870 5871 5872 5873 5874 5874 5875 5877 5878 5879 5880 5881 5881
5918 5916 5913 5912 5910 5909 5908 5906 5904 5902 5900 5898 5895 5894 5891 5889 5886 5883 5881 5879 5877 5875 5873 5871 5869 5868 5866 5865 5864 5863 5862 5862 5863 5863 5863 5864 5865 5865 5867 5868 5869 5870 5872 5873 5875 5876 5877 5878 5879
5916 5916 5913 5911 5910 5908 5907 5905 5903 5900 5898 5896 5894 5891 5888 5886 5883 5881 5878 5876 5873 5870 5868 5866 5864 5862 5860 5859 5858 5857 5856 5856 5856 5856 5857 5857 5858 5859 5861 5862 5864 5865 5867 5869 5871 5872 5874 5875 5876
5915 5915 5912 5910 5908 5907 5905 5903 5901 5899 5897 5895 5892 5889 5886 5883 5880 5878 5875 5872 5869 5866 5864 5861 5858 5856 5854 5852 5851 5850 5849 5849 5849 5849 5850 5851 5852 5853 5854 5856 5858 5860 5862 5864 5866 5868 5870 5871 5873
5914 5913 5911 5909 5907 5905 5904 5902 5899 5897 5895 5892 5890 5887 5884 5881 5878 5875 5872 5869 5865 5862 5859 5856 5853 5851 5848 5846 5845 5844 5842 5842 5842 5841 5842 5843 5844 5846 5847 5849 5851 5853 5855 5858 5860 5863 5865 5867 5869
5911 5911 5910 5908 5906 5904 5902 5901 5898 5896 5893 5890 5887 5885 5882 5879 5876 5872 5869 5865 5862 5859 5855 5851 5848 5845 5842 5840 5839 5837 5835 5835 5834 5834 5834 5835 5836 5838 5839 5841 5844 5846 5848 5851 5854 5857 5860 5863 5865
5909 5908 5907 5906 5905 5903 5901 5899 5897 5895 5892 5889 5886 5883 5880 5876 5873 5869 5866 5862 5858 5855 5851 5847 5843 5840 5837 5834 5832 5830 5829 5827 5826 5826 5826 5826 5828 5829 5831 5833 5836 5838 5841 5845 5848 5851 5854 5857 5860
5907 5906 5905 5905 5903 5902 5900 5898 5896 5893 5890 5887 5884 5881 5878 5875 5871 5867 5863 5859 5855 5851 5847 5843 5839 5835 5832 5829 5826 5824 5822 5820 5819 5818 5817 5818 5819 5820 5822 5824 5827 5830 5833 5837 5841 5844 5848 5851 5854
5905 5904 5903 5902 5901 5900 5898 5896 5894 5892 5889 5886 5883 5880 5876 5873 5869 5865 5861 5857 5853 5848 5844 5839 5835 5831 5827 5824 5820 5818 5816 5814 5812 5811 5810 5809 5810 5811 5813 5816 5818 5821 5825 5829 5833 5837 5841 5845 5848
5903 5903 5902 5901 5899 5897 5897 5895 5892 5889 5887 5884 5882 5878 5875 5871 5868 5864 5860 5855 5850 5846 5841 5836 5831 5827 5823 5819 5816 5812 5809 5807 5805 5804 5802 5802 5801 5802 5804 5806 5809 5812 5816 5820 5824 5829 5833 5838 5841
5901 5901 5900 5899 5897 5895 5896 5894 5891 5887 5885 5883 5880 5877 5874 5870 5866 5862 5858 5853 5848 5843 5838 5833 5829 5824 5819 5815 5811 5807 5804 5801 5799 5797 5795 5794 5793 5794 5795 5797 5800 5803 5807 5811 5816 5820 5825 5830 5834
5899 5899 5897 5896 5895 5894 5893 5892 5889 5886 5884 5882 5879 5876 5873 5869 5865 5861 5856 5852 5847 5842 5837 5831 5826 5821 5816 5811 5807 5802 5799 5795 5793 5790 5788 5786 5786 5786 5787 5788 5791 5794 5797 5802 5807 5811 5817 5822 5827
5897 5897 5896 5895 5894 5892 5891 5890 5888 5885 5883 5881 5878 5875 5871 5868 5864 5860 5855 5850 5846 5840 5835 5830 5824 5819 5813 5808 5803 5799 5794 5791 5787 5784 5782 5780 5779 5778 5779 5780 5782 5785 5788 5793 5798 5803 5808 5814 5819
5894 5894 5894 5894 5892 5891 5890 5889 5887 5884 5882 5880 5877 5874 5870 5867 5863 5859 5854 5850 5845 5839 5834 5828 5822 5817 5811 5806 5801 5796 5791 5786 5782 5779 5776 5774 5772 5771 5771 5772 5774 5776 5780 5784 5789 5794 5799 5805 5810
5892 5892 5892 5892 5891 5890 5889 5888 5886 5884 5882 5880 5877 5874 5870 5866 5862 5858 5854 5849 5844 5838 5833 5827 5821 5815 5809 5804 5798 5793 5788 5783 5778 5774 5771 5768 5766 5765 5764 5765 5766 5768 5771 5775 5780 5785 5791 5796 5802
5890 5890 5890 5890 5890 5889 5888 5887 5885 5883 5882 5880 5877 5874 5870 5866 5862 5858 5853 5848 5843 5838 5832 5826 5820 5814 5808 5802 5796 5790 5785 5780 5775 5771 5767 5764 5761 5759 5758 5758 5759 5760 5763 5767 5771 5776 5782 5788 5794
5887 5887 5888 5888 5888 5887 5887 5885 5884 5882 5880 5879 5876 5873 5870 5866 5862 5858 5853 5848 5842 5837 5831 5826 5820 5813 5807 5801 5795 5789 5784 5778 5773 5768 5764 5761 5757 5755 5753 5752 5752 5754 5756 5759 5764 5768 5774 5779 5786
5884 5886 5886 5886 5886 5886 5885 5884 5884 5881 5879 5878 5875 5873 5870 5866 5862 5857 5853 5847 5842 5837 5831 5825 5819 5813 5807 5800 5794 5788 5782 5777 5771 5766 5762 5758 5754 5751 5749 5748 5747 5748 5750 5753 5756 5761 5766 5772 5778
5882 5884 5884 5884 5884 5884 5884 5884 5883 5880 5878 5877 5875 5872 5869 5865 5861 5857 5852 5847 5842 5837 5831 5825 5819 5813 5806 5800 5794 5788 5781 5776 5770 5765 5760 5756 5751 5748 5745 5743 5743 5743 5744 5747 5750 5754 5759 5764 5770
5880 5882 5882 5883 5883 5884 5883 5883 5882 5880 5878 5876 5874 5871 5868 5865 5861 5857 5852 5847 5842 5837 5831 5825 5819 5813 5807 5800 5794 5787 5781 5775 5769 5764 5758 5754 5749 5745 5742 5739 5738 5738 5739 5741 5744 5748 5752 5758 5763
5877 5879 5881 5881 5882 5883 5881 5880 5880 5879 5877 5875 5873 5870 5868 5864 5860 5856 5852 5847 5842 5837 5832 5826 5820 5814 5807 5801 5794 5788 5781 5775 5769 5763 5757 5752 5747 5743 5739 5736 5734 5734 5734 5736 5739 5742 5747 5751 5757
5875 5876 5877 5879 5879 5880 5880 5879 5878 5877 5876 5874 5872 5870 5867 5864 5860 5856 5852 5847 5842 5837 5832 5826 5820 5814 5808 5801 5795 5788 5782 5775 5769 5762 5756 5751 5746 5742 5738 5734 5731 5730 5730 5732 5734 5737 5741 5746 5751
5873 5874 5875 5876 5877 5878 5880 5878 5875 5875 5874 5873 5871 5868 5866 5863 5859 5855 5851 5847 5843 5838 5832 5827 5821 5815 5809 5802 5796 5789 5782 5776 5769 5763 5757 5751 5746 5741 5737 5733 5730 5728 5728 5729 5731 5733 5736 5741 5745
5870 5872 5873 5874 5875 5876 5876 5876 5874 5873 5872 5871 5869 5867 5865 5862 5859 5855 5851 5847 5843 5838 5833 5828 5822 5816 5810 5803 5797 5790 5783 5776 5770 5764 5757 5751 5746 5741 5737 5733 5729 5727 5726 5727 5728 5730 5733 5736 5740
5868 5869 5870 5872 5872 5872 5873 5875 5872 5872 5871 5870 5868 5866 5864 5861 5858 5855 5851 5847 5843 5838 5833 5828 5823 5817 5811 5804 5798 5791 5784 5778 5771 5765 5759 5753 5747 5742 5737 5733 5729 5727 5725 5725 5726 5728 5730 5733 5736